Home > Weather > Gijón > Past weeks

Flag for Spain Past Weather in Gijón, Spain — Yesterday and Last 2 Weeks

Now
55 °F

Overcast.


Feels Like: 55 °F
Forecast: 50 / 66 °F
Wind: 1 mph from West

Location: Oviedo

Current Time: May 31, 2016 at 6:01:42 AM

Latest Report: May 31, 2016 at 5:00 AM


Visibility: 7 mi

Pressure: 30.24 "Hg

Humidity: 95%

Dew Point: 53 °F

Location of GijónLocation

Past Weather in Gijón — Graph

°F

Gijón Temperature Yesterday

Maximum temperature yesterday: 63 °F (at 3:00 PM)
Minimum temperature yesterday: 52 °F (at 8:00 AM)
Average temperature yesterday: 57 °F

High & Low Weather Summary for the Past Weeks

 TemperatureHumidityPressure
High76 °F (May 20, 6:00 PM)100% (May 18, 8:00 AM)30.32 "Hg (May 18, 8:00 AM)
Low46 °F (May 23, 7:00 AM)44% (May 20, 7:00 PM)29.73 "Hg (May 24, 3:00 PM)
Average58 °F84%30.04 "Hg
* Reported May 16 5:00 AM — May 31 5:00 AM, Gijón, Weather by CustomWeather, © 2016

Note: Actual official high and low records may vary slightly from our data, if they occured in-between our weather recording intervals... More about our weather records

Advertising

Gijón Weather History for the Previous 24 Hours

Scroll right to see more
 ConditionsComfort  
Time TempWeatherWind HumidityBarometerVisibility
5:00 AM
Tue, May 31
55 °FOvercast.1 mph95%30.24 "Hg7 mi
4:00 AM55 °FCool.2 mph95%30.23 "Hg6 mi
3:00 AM55 °FCool.2 mph93%30.23 "Hg7 mi
2:00 AM56 °FOvercast.5 mph94%30.22 "Hg9 mi
1:00 AM55 °FCool.3 mph94%30.22 "Hg7 mi
12:00 AM55 °FCool.3 mph94%30.22 "Hg7 mi
11:00 PM
Mon, May 30
56 °FOvercast.5 mph92%30.22 "Hg9 mi
10:00 PM56 °FCool.5 mph88%30.20 "Hg12 mi
9:00 PM58 °FCool.6 mph82%30.18 "Hg12 mi
8:00 PM60 °FOvercast.10 mph76%30.16 "Hg12 mi
7:00 PM60 °FCool.7 mph77%30.15 "Hg12 mi
6:00 PM60 °FCool.6 mph85%30.14 "Hg12 mi
5:00 PM59 °FOvercast.3 mph91%30.14 "Hg12 mi
4:00 PM59 °FLight rain. Cloudy.5 mph95%30.14 "Hg11 mi
3:00 PM63 °FMild.13 mph71%30.11 "Hg11 mi
2:00 PM63 °FOvercast.9 mph65%30.11 "Hg12 mi
11:00 AM60 °FPartly sunny.7 mph75%30.11 "Hg12 mi
10:00 AM56 °FCool.3 mph87%30.12 "Hg12 mi
9:00 AM54 °FCool.1 mph90%30.11 "Hg12 mi
8:00 AM52 °FOvercast.3 mph96%30.11 "Hg12 mi
7:00 AM53 °FCool.2 mph98%30.09 "Hg11 mi
6:00 AM54 °FCool.5 mph94%30.08 "Hg9 mi
Weather by CustomWeather, © 2016

See weather overviewHow to use our weather pages